Location: *
(49.0044°N, 9.5056°E)
Time: 05:42:57
(UTC+00:00)

ASTEX 1 - Pass Details

Date: 22 September 2019
Orbit: 720 x 744 km, 92.7° (Epoch: 21 October)

Event Time Altitude Azimuth Distance (km) Brightness Sun altitude
Rises 19:07:54 0° 2° (N) 3,146 7.0 -18.0°
Reaches altitude 10° 19:10:14 10° 358° (N) 2,220 6.2 -18.3°
Maximum altitude 19:15:00 55° 282° (WNW) 865 4.1 -19.0°
Drops below altitude 10° 19:19:45 10° 205° (SSW) 2,206 5.9 -19.7°
Sets 19:22:04 0° 201° (SSW) 3,124 6.6 -20.1°
